Terminal Aerodrome Forecast
Issued by NWS Melbourne, FL

Home | Current Version | Previous Version | Text Only | Print | Product List | Glossary On
Versions: 1 2 3 4 5 6 7 8 9 10 11 12 13 14
103
FTUS42 KMLB 082337
TAFDAB
TAF
KDAB 082337Z 0900/0924 24014KT P6SM SCT060 BKN200 WS015/25037KT
     FM090300 25016G24KT P6SM BKN050
     FM091700 27020G30KT P6SM BKN050=

USA.gov is the U.S. government's official web portal to all federal, state and local government web resources and services.